Miscellaneous Local Product
Issued by NWS Hastings, NE

Home | Current Version | Previous Version | Text Only | Print | Product List | Glossary Off
Versions: 1 2 3 4 5 6 7 8 9 10 11 12 13 14 15 16 17 18 19 20 21 22 23 24 25 26 27 28 29 30 31 32 33 34 35 36 37 38 39 40 41 42 43 44 45 46 47 48 49 50

000
AXUS43 KGID 190502
MISGRI

GID CWA HOURLY WEATHER ROUNDUP
NATIONAL WEATHER SERVICE HASTINGS NE
1200 AM CDT SAT APR 19 2014

NOTE: "FAIR" INDICATES FEW OR NO CLOUDS BELOW 12,000 FEET WITH NO
SIGNIFICANT WEATHER AND/OR OBSTRUCTIONS TO VISIBILITY.

...SOUTH CENTRAL NEBRASKA...

CITY           SKY/WX    TMP DP  RH WIND       PRES   REMARKS
GRAND ISLAND   CLEAR     57  42  57 S17       29.99F
HASTINGS       CLEAR     58  41  53 S15       30.00F
KEARNEY        CLEAR     55  41  58 S15G21    29.98F
ORD            PTCLDY    59  42  53 S21G31    29.92F
YORK           CLEAR     55  41  58 S16       30.04S
AURORA         CLEAR     57  42  57 S15       30.02S
LEXINGTON      CLEAR     57  44  60 S18G25    29.95S
HOLDREGE       CLEAR     57  42  57 S17       29.98S
HEBRON         CLEAR     54  41  60 SE12      30.06F

...NEBRASKA PANHANDLE...

CITY           SKY/WX    TMP DP  RH WIND       PRES   REMARKS
CHADRON        CLOUDY    62  38  40 SW8       29.78R
ALLIANCE       CLOUDY    60  35  39 W9        29.84R
SCOTTSBLUFF    CLOUDY    66  32  28 W9        29.82R
SIDNEY         CLOUDY    66  36  32 S30G39    29.83F

...WESTERN AND NORTH CENTRAL NEBRASKA...

CITY           SKY/WX    TMP DP  RH WIND       PRES   REMARKS
VALENTINE      CLOUDY    63  43  48 S25G37    29.77R
AINSWORTH      CLOUDY    62  43  51 S28G35    29.80S
ONEILL         MOCLDY    62  40  44 S26G33    29.87R
BROKEN BOW     PTCLDY    57  43  59 S21G28    29.92F
IMPERIAL       CLOUDY    59  42  53 S22       29.89F
NORTH PLATTE   PTCLDY    60  41  49 S22G32    29.87F
MCCOOK         MOCLDY    60  41  49 S21G30    29.93F

...EASTERN NEBRASKA...

CITY           SKY/WX    TMP DP  RH WIND       PRES   REMARKS
NORFOLK        PTCLDY    57  39  51 S21G29    29.97F
SO SIOUX CITY  MOCLDY    57  40  52 S18       30.01F
TEKAMAH        PTCLDY    56  39  53 S16       30.05S
ALBION         CLEAR     57  41  53 S15       29.97F
OMAHA EPPLEY   PTCLDY    56  40  55 S10       30.09S
OFFUTT AFB     PTCLDY    54  41  62 SE10      30.10S
MILLARD        PTCLDY    58  40  51 SE12      30.09S
LINCOLN        CLEAR     57  40  52 S17       30.08S
NEBRASKA CITY  MOCLDY    56  39  53 S14       30.12S
BEATRICE       CLEAR     56  40  54 S10       30.10S
FALLS CITY     CLOUDY    52  41  66 SE10      30.14R

...NORTHERN KANSAS...

CITY           SKY/WX    TMP DP  RH WIND       PRES   REMARKS
GOODLAND       MOCLDY    55  43  63 S24       29.93S
HILL CITY      PTCLDY    59  43  55 S13       29.99F
PHILLIPSBURG   CLEAR     59  41  51 SE13      30.01R
SMITH CENTER   CLEAR     54  41  62 SE15      30.02F
BELOIT         CLEAR     61  41  48 SE13      30.04S
HAYS           PTCLDY    55  41  58 S13       30.03F
RUSSELL        CLEAR     58  41  53 S21       30.02S
CONCORDIA      CLEAR     56  41  57 SE13      30.07S
SALINA         CLEAR     56  40  55 SE12      30.09S
TOPEKA         MOCLDY    54  42  64 SE5       30.16S



USA.gov is the U.S. government's official web portal to all federal, state and local government web resources and services.